Delta Virtual Airport Information Service

Anchorage Ted Stevens International Airport

ICAO: PANC Country: United States
Latitude: 61.1744 Longitude: -149.996
Latest Arrival : ASA4476281 (PASC-PANC) Latest Departure : SIA7952 (1A) (PANC-KDFW)


WX CaptureLIVE
Data provided by noaa.gov | Fetched at 01:13:26

METAR : PANC 300553Z 14004KT 10SM FEW200 M16/M18 A3056 RMK AO2 SLP354 4/004 T11611178 11117 21167 55002

TAF : PANC 300553Z 14004KT 10SM FEW200 M16/M18 A3056 RMK AO2 SLP354 4/004 T11611178 11117 21167 55002


Runway Data for PANC
Data provided by openaviationdata.com

Runway ID Mag Var Hdg Length Elevation Surface ILS Freq ILS Id ILS Slope
07L 23 66° 10587 ft 152 ft Asphalt 109.9 ITGN 3
07R 23 66° 10886 ft 152 ft Asphalt 111.3 IANC 3
15 23 141° 11591 ft 152 ft Asphalt 111.75 IBSC 3
25L 23 246° 10886 ft 152 ft Asphalt -- -- --
25R 23 246° 10587 ft 152 ft Asphalt -- -- --
33 23 321° 11591 ft 152 ft Asphalt -- -- --

Anchorage Ted Stevens International Airport, United States
Use only for reference purposes



Not for navigational purposes.